sat.trackr.live / text

‹ back to catalog

STARLINK-3648

NORAD 51993 · 2022-025AP

PAYLOAD ACTIVE UNKNOWN

§ Identity

Operator
Country
US
Launch date
2022-03-09
Launch site
AFETR
Launch vehicle
Mass (kg)
RCS (m²)

Purposes: comms

External: N2YO · Heavens-Above · Gunter

§ Orbital elements

Epoch: 2026-05-25T03:12:27.282240Z

Period
95.44 min
Inclination
53.2129°
Eccentricity
0.0001554
Mean motion
15.08839102 rev/d
Perigee alt
538.7 km
Apogee alt
540.8 km
Semi-major
6,917.9 km
B*
6.6557e-5
RAAN
55.9505°
Arg perigee
74.2083°
Mean anomaly
285.9081°
Rev number
23,260

§ Raw data

STARLINK-36481 51993U 22025AP  26145.13364910  .00000771  00000+0  66557-4 0  99902 51993  53.2129  55.9505 0001554  74.2083 285.9081 15.08839102232602

JSON: /api/v1/satellites/51993 · /tle

For live sub-satellite position, see the globe view (requires WebGL).

§ Visibility from observer

Set your observer location to see the next 7 days of passes ≥ 10°. The values pass through the URL so the page stays shareable.

No JS? Fill the form by hand. The geolocation button needs JavaScript.